Weather History for Jaipur, India

Change the Weather History Date:

Wednesday, August 13, 2014

  Actual Average Record
Temperature  
Mean Temperature 86 °F -  
Max Temperature 92 °F - - ()
Min Temperature 79 °F - - ()
Cooling Degree Days 20    
Growing Degree Days 36 (Base 50)    
Moisture  
Dew Point 76 °F    
Average Humidity 74    
Maximum Humidity 95    
Minimum Humidity 55    
Precipitation  
Precipitation 0.00 in - - ()
Sea Level Pressure  
Sea Level Pressure 29.62 in    
Wind  
Wind Speed 9 mph ()    
Max Wind Speed 16 mph    
Max Gust Speed -    
Visibility 1.7 miles    
Events      
T = Trace of Precipitation, MM = Missing Value Source: Averaged Metar Reports

Daily Weather History Graph

Daily Weather History Graph

Search for Another Location

Airport:

Trip Planner

Search our weather history database for the weather conditions in past years. The results will help you decide how hot, cold, wet, or windy it might be!

Date:

Astronomy

Aug. 13, 2014 Rise Set
Actual Time 5:57 AM IST 7:05 PM IST
Civil Twilight 5:32 AM IST 7:30 PM IST
Nautical Twilight 5:03 AM IST 7:58 PM IST
Astronomical Twilight 4:34 AM IST 8:28 PM IST
Moon 8:57 PM IST (8/13) 8:32 AM IST (8/13)
Length of Visible Light 13h 57m
Length of Day
13h 08m
Waning Gibbous, 91% of the Moon is Illuminated
Aug 13
Waning Gibbous
Aug 17
Last Quarter
Aug 25
New
Sep 2
First Quarter
Sep 9
Full

Hourly Weather History & Observations

Time (IST) Temp. Heat Index Dew Point Humidity Pressure Visibility Wind Dir Wind Speed Gust Speed Precip Events Conditions
12:00 AM 82.4 °F 90.9 °F 77.0 °F 84% 29.65 in 1.9 mi WNW 6.9 mph - N/A   Haze
1:00 AM 82.4 °F 90.9 °F 77.0 °F 84% 29.65 in 1.9 mi WNW 6.9 mph - N/A   Haze
2:30 AM 80 °F - 76 °F 85% 29.55 in 1 mi WNW 5.8 mph - -   Haze
5:30 AM 78 °F - 77 °F 95% 29.55 in 1 mi WNW 6.9 mph - -   Haze
6:00 AM 78.8 °F - 77.0 °F 94% 29.62 in 1.6 mi WNW 6.9 mph - N/A   Scattered Clouds
7:00 AM 80.6 °F 86.2 °F 75.2 °F 84% 29.65 in 1.6 mi WNW 10.4 mph - N/A   Scattered Clouds
8:00 AM 80.6 °F 86.2 °F 75.2 °F 84% 29.68 in 1.9 mi WNW 11.5 mph - N/A   Haze
8:30 AM 82 °F - 76 °F 78% 29.60 in 1 mi WNW 11.5 mph - -   Haze
9:00 AM 82.4 °F 90.9 °F 77.0 °F 84% 29.68 in 1.9 mi WNW 12.7 mph - N/A   Haze
10:00 AM 82.4 °F 89.5 °F 75.2 °F 79% 29.68 in 1.9 mi WNW 12.7 mph - N/A   Haze
11:00 AM 86.0 °F 95.1 °F 75.2 °F 70% 29.68 in 1.9 mi WNW 15.0 mph - N/A   Haze
11:30 AM 87 °F - 76 °F 64% 29.60 in 2 mi WNW 11.5 mph - -   Haze
12:00 PM 86.0 °F 95.1 °F 75.2 °F 70% 29.68 in 1.9 mi WNW 10.4 mph - N/A   Haze
1:00 PM 86.0 °F 95.1 °F 75.2 °F 70% 29.65 in 1.9 mi West 11.5 mph - N/A   Haze
2:00 PM 87.8 °F 97.6 °F 75.2 °F 66% 29.65 in 1.9 mi WNW 12.7 mph - N/A   Haze
2:30 PM 89 °F - 76 °F 58% 29.56 in 2 mi West 13.8 mph - -   Haze
3:00 PM 87.8 °F 97.6 °F 75.2 °F 66% 29.62 in 1.9 mi West 15.0 mph - N/A   Haze
4:00 PM 87.8 °F 95.6 °F 73.4 °F 62% 29.62 in 1.9 mi West 16.1 mph - N/A   Haze
5:00 PM 87.8 °F 97.6 °F 75.2 °F 66% 29.59 in 1.9 mi West 13.8 mph - N/A   Haze
5:30 PM 90 °F - 76 °F 55% 29.51 in 2 mi WSW 16.1 mph - -   Haze
6:00 PM 87.8 °F 95.6 °F 73.4 °F 62% 29.59 in 1.9 mi West 15.0 mph - N/A   Haze
8:30 PM 84 °F - 75 °F 68% 29.55 in 1 mi West 6.9 mph - -   Haze
11:30 PM 82 °F - 75 °F 73% 29.57 in 1 mi West 5.8 mph - -   Haze